| time (UTC) | temp C | wind direction | speed KPH | gust KPH | rain 1hr cm | rain 24hr cm | rain mn cm | humidity % | barometer mb |
| 20260506044006 | 10 | 295 | 0.0 | 1.6 | 0.00 | 2.41 | 0.30 | 99 | 1009.4 |
| 20260506043006 | 10 | 318 | 1.6 | 3.2 | 0.00 | 2.39 | 0.25 | 99 | 1009.5 |
| 20260506042020 | 10 | 340 | 1.6 | 3.2 | 0.00 | 2.34 | 0.18 | 99 | 1009.3 |
| 20260506041001 | 10 | 273 | 0.0 | 1.6 | 0.00 | 2.24 | 0.08 | 99 | 1009.3 |
| 20260506040007 | 10 | 138 | 3.2 | 6.4 | 0.00 | 2.16 | 0.00 | 99 | 1009.3 |
| 20260506035006 | 10 | 115 | 8.0 | 9.7 | 0.00 | 2.08 | 2.08 | 99 | 1009.4 |
| 20260506034001 | 10 | 115 | 3.2 | 4.8 | 0.00 | 2.03 | 2.03 | 99 | 1009.5 |
| 20260506031006 | 10 | 160 | 4.8 | 9.7 | 0.00 | 1.93 | 1.93 | 99 | 1009.6 |
| 20260506030007 | 10 | 115 | 8.0 | 9.7 | 0.00 | 1.91 | 1.91 | 99 | 1009.7 |
| 20260506025007 | 10 | 93 | 3.2 | 6.4 | 0.00 | 1.88 | 1.88 | 99 | 1009.7 |
| 20260506024002 | 10 | 115 | 3.2 | 4.8 | 0.00 | 1.85 | 1.85 | 98 | 1009.9 |
| 20260506023003 | 10 | 93 | 4.8 | 6.4 | 0.00 | 1.80 | 1.80 | 98 | 1010.1 |
| 20260506022003 | 10 | 48 | 1.6 | 1.6 | 0.00 | 1.75 | 1.75 | 98 | 1010.2 |
| 20260506021004 | 10 | 70 | 3.2 | 4.8 | 0.00 | 1.70 | 1.70 | 98 | 1010.3 |
| 20260506020006 | 10 | 318 | 3.2 | 4.8 | 0.00 | 1.60 | 1.60 | 98 | 1010.5 |
| 20260506015006 | 10 | 273 | 1.6 | 1.6 | 0.00 | 1.37 | 1.37 | 98 | 1010.9 |
| 20260506014007 | 10 | 250 | 1.6 | 4.8 | 0.00 | 1.14 | 1.14 | 98 | 1010.6 |
| 20260506012002 | 10 | 48 | 3.2 | 4.8 | 0.00 | 0.97 | 0.97 | 98 | 1010.0 |
| 20260506011003 | 10 | 70 | 3.2 | 4.8 | 0.00 | 0.91 | 0.91 | 98 | 1009.8 |
| 20260506005003 | 10 | 318 | 8.0 | 9.7 | 0.00 | 0.89 | 0.89 | 97 | 1010.3 |
| 20260506004003 | 10 | 3 | 4.8 | 6.4 | 0.00 | 0.86 | 0.86 | 97 | 1010.0 |
| 20260506003004 | 10 | 273 | 1.6 | 3.2 | 0.00 | 0.76 | 0.76 | 97 | 1010.4 |
| 20260506002005 | 10 | 318 | 3.2 | 4.8 | 0.00 | 0.74 | 0.74 | 97 | 1010.1 |
| 20260506001005 | 10 | 250 | 1.6 | 1.6 | 0.00 | 0.69 | 0.69 | 97 | 1010.2 |
| 20260506000006 | 10 | 228 | 3.2 | 4.8 | 0.00 | 0.64 | 0.64 | 97 | 1009.9 |
| 20260505235001 | 10 | 318 | 3.2 | 6.4 | 0.00 | 0.61 | 0.61 | 97 | 1010.1 |
| 20260505234008 | 10 | 318 | 3.2 | 4.8 | 0.00 | 0.53 | 0.53 | 96 | 1010.1 |
| 20260505233002 | 11 | 318 | 3.2 | 4.8 | 0.00 | 0.51 | 0.51 | 96 | 1009.8 |
| 20260505232003 | 11 | 295 | 3.2 | 6.4 | 0.00 | 0.51 | 0.51 | 96 | 1010.0 |
| 20260505231004 | 11 | 273 | 3.2 | 4.8 | 0.00 | 0.48 | 0.48 | 95 | 1009.8 |
| 20260505230005 | 11 | 318 | 8.0 | 11.3 | 0.00 | 0.46 | 0.46 | 95 | 1009.7 |
| 20260505225006 | 11 | 318 | 8.0 | 11.3 | 0.00 | 0.36 | 0.36 | 95 | 1009.6 |
| 20260505224007 | 12 | 318 | 6.4 | 9.7 | 0.00 | 0.30 | 0.30 | 95 | 1009.6 |
| 20260505223002 | 12 | 273 | 6.4 | 17.7 | 0.00 | 0.25 | 0.25 | 95 | 1009.6 |
| 20260505221002 | 12 | 273 | 8.0 | 12.9 | 0.00 | 0.25 | 0.25 | 94 | 1009.4 |
| 20260505220002 | 12 | 318 | 8.0 | 17.7 | 0.00 | 0.25 | 0.25 | 94 | 1009.4 |
| 20260505215003 | 12 | 273 | 8.0 | 14.5 | 0.00 | 0.23 | 0.23 | 93 | 1009.5 |
| 20260505214003 | 13 | 318 | 3.2 | 6.4 | 0.00 | 0.23 | 0.23 | 92 | 1009.5 |
| 20260505212003 | 13 | 318 | 9.7 | 16.1 | 0.00 | 0.08 | 0.08 | 86 | 1009.3 |
| 20260505211003 | 15 | 273 | 4.8 | 9.7 | 0.00 | 0.05 | 0.05 | 79 | 1009.0 |
| 20260505210004 | 16 | 273 | 8.0 | 14.5 | 0.00 | 0.05 | 0.05 | 74 | 1008.5 |
| 20260505205005 | 16 | 273 | 6.4 | 14.5 | 0.00 | 0.05 | 0.05 | 73 | 1008.5 |
| 20260505204006 | 16 | 340 | 4.8 | 9.7 | 0.00 | 0.05 | 0.05 | 72 | 1008.5 |
| 20260505203007 | 16 | 318 | 4.8 | 8.0 | 0.00 | 0.05 | 0.05 | 72 | 1008.4 |
| 20260505202002 | 16 | 250 | 3.2 | 8.0 | 0.00 | 0.05 | 0.05 | 71 | 1008.6 |
| 20260505200007 | 16 | 273 | 6.4 | 14.5 | 0.00 | 0.05 | 0.05 | 70 | 1008.9 |
| 20260505195002 | 16 | 295 | 9.7 | 22.5 | 0.00 | 0.05 | 0.05 | 70 | 1008.8 |
| 20260505194003 | 16 | 318 | 6.4 | 8.0 | 0.00 | 0.05 | 0.05 | 71 | 1008.8 |
| 20260505193003 | 16 | 295 | 8.0 | 14.5 | 0.00 | 0.05 | 0.05 | 71 | 1008.8 |
| 20260505192004 | 16 | 295 | 8.0 | 14.5 | 0.00 | 0.05 | 0.05 | 70 | 1008.7 |
| 20260505191004 | 16 | 273 | 8.0 | 17.7 | 0.00 | 0.05 | 0.05 | 68 | 1008.8 |
| 20260505190005 | 16 | 295 | 4.8 | 14.5 | 0.00 | 0.05 | 0.05 | 68 | 1008.7 |
| 20260505183004 | 20 | 228 | 16.1 | 22.5 | 0.00 | 0.05 | 0.05 | 54 | 1008.3 |
| 20260505182004 | 20 | 205 | 17.7 | 25.7 | 0.00 | 0.05 | 0.05 | 54 | 1008.2 |
| 20260505180004 | 20 | 250 | 19.3 | 25.7 | 0.00 | 0.05 | 0.05 | 55 | 1008.0 |
| 20260505175004 | 19 | 273 | 17.7 | 27.4 | 0.00 | 0.05 | 0.05 | 55 | 1008.0 |
| 20260505174004 | 19 | 205 | 24.1 | 33.8 | 0.00 | 0.05 | 0.05 | 55 | 1008.2 |
| 20260505172008 | 19 | 228 | 24.1 | 32.2 | 0.00 | 0.05 | 0.05 | 55 | 1008.0 |
| 20260505171002 | 20 | 228 | 27.4 | 32.2 | 0.00 | 0.05 | 0.05 | 55 | 1008.0 |
| 20260505170002 | 20 | 273 | 25.7 | 33.8 | 0.00 | 0.05 | 0.05 | 54 | 1007.8 |
| 20260505164002 | 20 | 228 | 17.7 | 25.7 | 0.00 | 0.05 | 0.05 | 58 | 1007.4 |
| 20260505162001 | 18 | 228 | 20.9 | 30.6 | 0.00 | 0.05 | 0.05 | 60 | 1007.8 |
| 20260505161002 | 18 | 228 | 30.6 | 46.7 | 0.00 | 0.05 | 0.05 | 59 | 1008.3 |
| 20260505153007 | 17 | 228 | 29.0 | 38.6 | 0.00 | 0.05 | 0.05 | 63 | 1008.3 |
| 20260505151005 | 17 | 228 | 32.2 | 48.3 | 0.00 | 0.05 | 0.05 | 64 | 1008.0 |
| 20260505124002 | 18 | 228 | 17.7 | 32.2 | 0.00 | 0.05 | 0.05 | 61 | 1006.8 |
| 20260505123002 | 18 | 228 | 22.5 | 30.6 | 0.00 | 0.05 | 0.05 | 61 | 1007.0 |
| 20260505122003 | 18 | 273 | 16.1 | 20.9 | 0.00 | 0.05 | 0.05 | 61 | 1006.8 |
| 20260505121003 | 18 | 205 | 29.0 | 37.0 | 0.00 | 0.05 | 0.05 | 61 | 1006.7 |
| 20260505120004 | 18 | 205 | 16.1 | 25.7 | 0.00 | 0.05 | 0.05 | 61 | 1006.6 |
| 20260505115003 | 17 | 228 | 20.9 | 27.4 | 0.00 | 0.05 | 0.05 | 61 | 1006.7 |
| 20260505113003 | 17 | 228 | 19.3 | 30.6 | 0.00 | 0.05 | 0.05 | 61 | 1006.4 |
| 20260505112003 | 17 | 228 | 16.1 | 27.4 | 0.00 | 0.05 | 0.05 | 61 | 1006.2 |
| 20260505102007 | 17 | 183 | 19.3 | 25.7 | 0.00 | 0.05 | 0.05 | 62 | 1005.9 |
| 20260505101015 | 17 | 205 | 16.1 | 24.1 | 0.00 | 0.05 | 0.05 | 63 | 1005.8 |
| 20260505100002 | 17 | 183 | 16.1 | 25.7 | 0.00 | 0.05 | 0.05 | 64 | 1005.8 |
| 20260505094005 | 17 | 183 | 14.5 | 19.3 | 0.00 | 0.05 | 0.05 | 65 | 1005.7 |
| 20260505093004 | 17 | 205 | 12.9 | 25.7 | 0.00 | 0.05 | 0.05 | 65 | 1005.7 |
| 20260505092004 | 16 | 205 | 12.9 | 19.3 | 0.00 | 0.05 | 0.05 | 67 | 1005.6 |
| 20260505091005 | 16 | 228 | 12.9 | 19.3 | 0.00 | 0.05 | 0.05 | 67 | 1005.6 |
| 20260505090004 | 16 | 160 | 9.7 | 14.5 | 0.00 | 0.05 | 0.05 | 67 | 1005.6 |
| 20260505085005 | 16 | 183 | 11.3 | 17.7 | 0.00 | 0.05 | 0.05 | 67 | 1005.5 |
| 20260505084005 | 16 | 183 | 9.7 | 17.7 | 0.00 | 0.05 | 0.05 | 68 | 1005.5 |
| 20260505083006 | 16 | 250 | 16.1 | 24.1 | 0.00 | 0.05 | 0.05 | 70 | 1005.5 |
| 20260505082007 | 16 | 228 | 12.9 | 19.3 | 0.00 | 0.05 | 0.05 | 71 | 1005.4 |
| 20260505081006 | 16 | 228 | 12.9 | 19.3 | 0.00 | 0.05 | 0.05 | 72 | 1005.4 |
| 20260505080006 | 15 | 228 | 12.9 | 20.9 | 0.00 | 0.05 | 0.05 | 74 | 1005.5 |
| 20260505075001 | 15 | 205 | 12.9 | 20.9 | 0.00 | 0.05 | 0.05 | 76 | 1005.3 |
| 20260505074001 | 15 | 183 | 8.0 | 14.5 | 0.00 | 0.05 | 0.05 | 76 | 1005.4 |
| 20260505073002 | 15 | 228 | 6.4 | 9.7 | 0.00 | 0.05 | 0.05 | 76 | 1005.4 |
| 20260505072002 | 15 | 160 | 9.7 | 14.5 | 0.00 | 0.05 | 0.05 | 73 | 1005.5 |
| 20260505071003 | 16 | 250 | 19.3 | 27.4 | 0.00 | 0.05 | 0.05 | 71 | 1005.4 |
| 20260505065002 | 17 | 228 | 33.8 | 54.7 | 0.00 | 0.05 | 0.05 | 59 | 1006.2 |
| 20260505064003 | 17 | 205 | 25.7 | 35.4 | 0.00 | 0.05 | 0.05 | 61 | 1006.0 |
| 20260505063003 | 17 | 205 | 14.5 | 19.3 | 0.00 | 0.05 | 0.05 | 62 | 1006.0 |
| 20260505062004 | 17 | 205 | 16.1 | 22.5 | 0.00 | 0.05 | 0.05 | 62 | 1005.8 |
| 20260505061005 | 17 | 250 | 20.9 | 32.2 | 0.00 | 0.05 | 0.05 | 62 | 1005.7 |
| 20260505060005 | 17 | 228 | 14.5 | 24.1 | 0.00 | 0.05 | 0.05 | 62 | 1005.9 |
| 20260505055006 | 17 | 205 | 14.5 | 20.9 | 0.00 | 0.05 | 0.05 | 64 | 1006.1 |
| 20260505054001 | 17 | 250 | 9.7 | 14.5 | 0.00 | 0.05 | 0.05 | 64 | 1006.1 |
| 20260505053002 | 16 | 228 | 6.4 | 11.3 | 0.00 | 0.05 | 0.05 | 66 | 1006.2 |
| 20260505051002 | 17 | 318 | 3.2 | 6.4 | 0.00 | 0.05 | 0.05 | 65 | 1006.4 |